EXS14DF LCLK-EGCC

Flight info

Callsign EXS14DF
Flight time 4h 51m
Altitude 34000
Route PHA M31 GENOS DCT PEDER DCT EVENO DCT BENEM UN127 ULKAN DCT RIKSO UN128 FSK UL608 DISOR DCT LONTA/N0443F360 UL608 DOLEV DCT GENLU DCT PODOB DCT DEVUL DCT DOL DCT ERKIR DCT BABEG DCT LIRSU DCT DENUT L610 RAPIX DCT ELVOS
Aircraft B738/M-SDE2E3FGHIRWXY/LB1

Departure

Time 2026-05-06 15:57
Airport Larnaca International Airport (LCLK)

Arrival

Time 2026-05-06 20:48
Airport Manchester Airport (EGCC)
Time Latitude Longitude Altitude Speed Heading
2026-05-06 15:37 34.86952 33.60858 21 ft 0 kts 45°
2026-05-06 15:44 34.86938 33.60840 21 ft 4 kts 45°
2026-05-06 15:44 34.86919 33.60817 19 ft 4 kts 45°
2026-05-06 15:44 34.86900 33.60793 19 ft 4 kts 45°
2026-05-06 15:45 34.86881 33.60770 20 ft 4 kts 45°
2026-05-06 15:45 34.86861 33.60747 22 ft 4 kts 45°
2026-05-06 15:45 34.86855 33.60739 21 ft 1 kts 45°
2026-05-06 15:48 34.86856 33.60739 21 ft 0 kts 45°
2026-05-06 15:48 34.86865 33.60754 23 ft 4 kts 57°
2026-05-06 15:48 34.86857 33.60807 19 ft 9 kts 128°
2026-05-06 15:49 34.86804 33.60876 20 ft 13 kts 134°
2026-05-06 15:49 34.86743 33.60951 19 ft 12 kts 135°
2026-05-06 15:49 34.86682 33.61023 19 ft 12 kts 136°
2026-05-06 15:49 34.86633 33.61101 20 ft 12 kts 96°
2026-05-06 15:50 34.86677 33.61179 20 ft 11 kts 45°
2026-05-06 15:50 34.86735 33.61252 21 ft 13 kts 45°
2026-05-06 15:50 34.86811 33.61344 19 ft 17 kts 45°
2026-05-06 15:50 34.86904 33.61458 21 ft 21 kts 45°
2026-05-06 15:51 34.87013 33.61590 19 ft 24 kts 45°
2026-05-06 15:51 34.87135 33.61741 20 ft 26 kts 45°
2026-05-06 15:51 34.87265 33.61900 20 ft 26 kts 45°
2026-05-06 15:51 34.87388 33.62051 19 ft 24 kts 44°
2026-05-06 15:52 34.87503 33.62191 19 ft 23 kts 45°
2026-05-06 15:52 34.87614 33.62326 21 ft 22 kts 45°
2026-05-06 15:52 34.87722 33.62457 19 ft 22 kts 45°
2026-05-06 15:52 34.87826 33.62584 19 ft 21 kts 45°
2026-05-06 15:53 34.87928 33.62708 19 ft 20 kts 45°
2026-05-06 15:53 34.88026 33.62829 19 ft 20 kts 45°
2026-05-06 15:53 34.88121 33.62945 19 ft 19 kts 45°
2026-05-06 15:53 34.88216 33.63062 21 ft 20 kts 45°
2026-05-06 15:54 34.88317 33.63185 19 ft 20 kts 45°
2026-05-06 15:54 34.88411 33.63300 19 ft 13 kts 45°
2026-05-06 15:54 34.88443 33.63349 19 ft 7 kts 71°
2026-05-06 15:54 34.88428 33.63400 19 ft 7 kts 133°
2026-05-06 15:55 34.88395 33.63441 19 ft 7 kts 135°
2026-05-06 15:55 34.88378 33.63502 20 ft 9 kts 95°
2026-05-06 15:55 34.88352 33.63575 20 ft 10 kts 156°
2026-05-06 15:55 34.88301 33.63526 19 ft 10 kts 229°
2026-05-06 15:56 34.88166 33.63361 19 ft 56 kts 225°
2026-05-06 15:56 34.87748 33.62852 22 ft 112 kts 225°
2026-05-06 15:56 34.87075 33.62044 50 ft 155 kts 222°
2026-05-06 15:56 34.86285 33.61120 521 ft 161 kts 224°
2026-05-06 15:57 34.85467 33.60093 979 ft 173 kts 225°
2026-05-06 15:57 34.84638 33.59009 1529 ft 179 kts 226°
2026-05-06 15:57 34.83752 33.57851 1894 ft 199 kts 227°
2026-05-06 15:57 34.82757 33.56554 2101 ft 219 kts 227°
2026-05-06 15:58 34.81672 33.55147 2300 ft 236 kts 227°
2026-05-06 15:58 34.80518 33.53657 2619 ft 248 kts 228°
2026-05-06 15:58 34.79293 33.52078 2911 ft 262 kts 227°
2026-05-06 15:58 34.78035 33.50461 3608 ft 263 kts 229°
2026-05-06 15:59 34.76764 33.48829 4257 ft 268 kts 227°
2026-05-06 15:59 34.75472 33.47173 4914 ft 272 kts 229°
2026-05-06 15:59 34.74156 33.45487 5570 ft 274 kts 228°
2026-05-06 15:59 34.72839 33.43801 6289 ft 277 kts 229°
2026-05-06 16:00 34.71503 33.42094 6881 ft 280 kts 228°
2026-05-06 16:00 34.70157 33.40374 7563 ft 280 kts 229°
2026-05-06 16:00 34.68819 33.38636 8208 ft 281 kts 234°
2026-05-06 16:00 34.68019 33.36550 8803 ft 277 kts 264°
2026-05-06 16:01 34.67946 33.34217 9447 ft 277 kts 274°
2026-05-06 16:01 34.68048 33.31875 10084 ft 279 kts 275°
2026-05-06 16:01 34.68174 33.29479 10391 ft 293 kts 275°
2026-05-06 16:01 34.68303 33.26927 10542 ft 312 kts 275°
2026-05-06 16:02 34.68429 33.24213 10687 ft 330 kts 274°
2026-05-06 16:02 34.68551 33.21355 10866 ft 346 kts 274°
2026-05-06 16:02 34.68669 33.18412 11341 ft 351 kts 274°
2026-05-06 16:02 34.68787 33.15439 11922 ft 353 kts 274°
2026-05-06 16:03 34.68903 33.12452 12580 ft 354 kts 274°
2026-05-06 16:03 34.69020 33.09449 13171 ft 357 kts 274°
2026-05-06 16:03 34.69138 33.06420 13723 ft 361 kts 274°
2026-05-06 16:03 34.69257 33.03353 14277 ft 364 kts 274°
2026-05-06 16:04 34.69373 33.00321 14903 ft 364 kts 274°
2026-05-06 16:04 34.69490 32.97247 15561 ft 364 kts 274°
2026-05-06 16:04 34.69607 32.94169 16175 ft 365 kts 274°
2026-05-06 16:04 34.69723 32.91083 16780 ft 366 kts 274°
2026-05-06 16:05 34.69839 32.87981 17361 ft 368 kts 274°
2026-05-06 16:05 34.69955 32.84864 17940 ft 370 kts 274°
2026-05-06 16:05 34.70071 32.81742 18514 ft 371 kts 274°
2026-05-06 16:05 34.70187 32.78602 19012 ft 373 kts 274°
2026-05-06 16:06 34.70302 32.75440 19485 ft 375 kts 274°
2026-05-06 16:06 34.70417 32.72264 19986 ft 377 kts 274°
2026-05-06 16:06 34.70532 32.69076 20478 ft 378 kts 274°
2026-05-06 16:06 34.70649 32.65879 20961 ft 380 kts 274°
2026-05-06 16:07 34.70767 32.62662 21361 ft 383 kts 274°
2026-05-06 16:07 34.70885 32.59421 21791 ft 385 kts 275°
2026-05-06 16:07 34.71003 32.56166 22242 ft 387 kts 275°
2026-05-06 16:07 34.71120 32.52894 22698 ft 388 kts 275°
2026-05-06 16:08 34.71207 32.49613 23123 ft 391 kts 272°
2026-05-06 16:08 34.71109 32.46298 23531 ft 394 kts 269°
2026-05-06 16:08 34.70917 32.42969 23888 ft 396 kts 268°
2026-05-06 16:08 34.70702 32.39662 24233 ft 398 kts 268°
2026-05-06 16:09 34.70488 32.36307 24550 ft 399 kts 268°
2026-05-06 16:09 34.70285 32.32938 24910 ft 400 kts 269°
2026-05-06 16:09 34.70090 32.29548 25219 ft 403 kts 269°
2026-05-06 16:09 34.69901 32.26145 25533 ft 404 kts 269°
2026-05-06 16:10 34.69715 32.22728 25859 ft 406 kts 269°
2026-05-06 16:10 34.69528 32.19296 26179 ft 407 kts 269°
2026-05-06 16:10 34.69340 32.15854 26478 ft 409 kts 269°
2026-05-06 16:10 34.69151 32.12401 26771 ft 410 kts 269°
2026-05-06 16:11 34.68959 32.08936 27064 ft 412 kts 269°
2026-05-06 16:11 34.68768 32.05499 27338 ft 414 kts 269°
2026-05-06 16:11 34.68573 32.01995 27592 ft 416 kts 269°
2026-05-06 16:11 34.68376 31.98488 27873 ft 417 kts 269°
2026-05-06 16:12 34.68216 31.94957 28151 ft 417 kts 274°
2026-05-06 16:12 34.68529 31.91477 28489 ft 413 kts 283°
2026-05-06 16:12 34.69259 31.88126 28961 ft 409 kts 289°
2026-05-06 16:12 34.70338 31.84953 29394 ft 405 kts 298°
2026-05-06 16:13 34.71755 31.81998 29767 ft 404 kts 300°
2026-05-06 16:13 34.73208 31.79062 30119 ft 404 kts 301°
2026-05-06 16:13 34.74658 31.76141 30489 ft 401 kts 301°
2026-05-06 16:13 34.76073 31.73279 30874 ft 398 kts 301°
2026-05-06 16:14 34.77487 31.70401 31253 ft 395 kts 300°
2026-05-06 16:14 34.78888 31.67536 31570 ft 393 kts 300°
2026-05-06 16:14 34.80280 31.64677 31878 ft 392 kts 300°
2026-05-06 16:14 34.81663 31.61829 32213 ft 389 kts 300°
2026-05-06 16:15 34.83036 31.58999 32559 ft 387 kts 300°
2026-05-06 16:15 34.84399 31.56185 32884 ft 385 kts 300°
2026-05-06 16:15 34.85754 31.53386 33172 ft 384 kts 300°
2026-05-06 16:15 34.87109 31.50582 33380 ft 384 kts 300°
2026-05-06 16:16 34.88467 31.47772 33578 ft 384 kts 300°
2026-05-06 16:16 34.89823 31.44963 33788 ft 384 kts 300°
2026-05-06 16:16 34.91175 31.42161 34061 ft 383 kts 300°
2026-05-06 16:16 34.92515 31.39381 34043 ft 386 kts 300°
2026-05-06 16:17 34.95222 31.33759 34071 ft 383 kts 300°
2026-05-06 16:17 34.97904 31.28180 34064 ft 380 kts 300°
2026-05-06 16:18 35.00562 31.22640 34066 ft 377 kts 300°
2026-05-06 16:18 35.03207 31.17120 34071 ft 376 kts 300°
2026-05-06 16:19 35.05846 31.11603 34073 ft 377 kts 300°
2026-05-06 16:19 35.08478 31.06093 34075 ft 378 kts 300°
2026-05-06 16:20 35.11138 31.00513 34079 ft 381 kts 300°
2026-05-06 16:20 35.13811 30.94900 34050 ft 383 kts 300°
2026-05-06 16:21 35.16498 30.89249 34075 ft 385 kts 300°
2026-05-06 16:21 35.19661 30.83971 34066 ft 387 kts 311°
2026-05-06 16:22 35.23370 30.79183 34066 ft 388 kts 311°
2026-05-06 16:22 35.26455 30.75182 34067 ft 388 kts 311°
2026-05-06 16:23 35.30155 30.70356 34070 ft 388 kts 311°
2026-05-06 16:23 35.33840 30.65529 34065 ft 387 kts 311°
2026-05-06 16:24 35.37512 30.60708 34064 ft 386 kts 311°
2026-05-06 16:24 35.41144 30.55932 34059 ft 385 kts 311°
2026-05-06 16:25 35.44794 30.51127 34068 ft 384 kts 311°
2026-05-06 16:25 35.48431 30.46332 34070 ft 384 kts 311°
2026-05-06 16:26 35.52064 30.41535 34072 ft 383 kts 311°
2026-05-06 16:26 35.55695 30.36734 34071 ft 383 kts 311°
2026-05-06 16:27 35.59317 30.31938 34064 ft 382 kts 311°
2026-05-06 16:27 35.62937 30.27137 34065 ft 382 kts 311°
2026-05-06 16:28 35.66529 30.22367 34066 ft 382 kts 311°
2026-05-06 16:28 35.70140 30.17564 34066 ft 382 kts 311°
2026-05-06 16:29 35.73745 30.12763 34068 ft 382 kts 311°
2026-05-06 16:29 35.77323 30.07989 34061 ft 382 kts 311°
2026-05-06 16:30 35.80327 30.03979 34075 ft 383 kts 311°
2026-05-06 16:30 35.84338 29.98114 34070 ft 384 kts 303°
2026-05-06 16:31 35.87185 29.92543 34064 ft 384 kts 303°
2026-05-06 16:31 35.90045 29.86963 34066 ft 385 kts 303°
2026-05-06 16:32 35.92913 29.81383 34046 ft 385 kts 303°
2026-05-06 16:32 35.95763 29.75841 34061 ft 385 kts 303°
2026-05-06 16:33 35.98630 29.70259 34071 ft 385 kts 303°
2026-05-06 16:34 36.02935 29.61858 34068 ft 386 kts 303°
2026-05-06 16:34 36.05799 29.56257 34069 ft 386 kts 303°
2026-05-06 16:35 36.08665 29.50643 34070 ft 386 kts 303°
2026-05-06 16:35 36.11524 29.45034 34075 ft 386 kts 303°
2026-05-06 16:36 36.14388 29.39406 34077 ft 386 kts 303°
2026-05-06 16:36 36.17271 29.33786 34067 ft 387 kts 306°
2026-05-06 16:37 36.20876 29.28924 34068 ft 388 kts 319°
2026-05-06 16:37 36.25036 29.24655 34070 ft 388 kts 319°
2026-05-06 16:38 36.29179 29.20352 34087 ft 389 kts 318°
2026-05-06 16:38 36.31259 29.18177 34193 ft 391 kts 318°
2026-05-06 16:38 36.33332 29.16002 34425 ft 390 kts 318°
2026-05-06 16:38 36.35401 29.13824 34636 ft 389 kts 318°
2026-05-06 16:39 36.37467 29.11646 34734 ft 391 kts 318°
2026-05-06 16:39 36.41643 29.07236 34906 ft 396 kts 318°
2026-05-06 16:39 36.43738 29.05021 35072 ft 396 kts 318°
2026-05-06 16:40 36.45835 29.02805 35264 ft 395 kts 318°
2026-05-06 16:40 36.47925 29.00593 35454 ft 394 kts 318°
2026-05-06 16:40 36.50018 28.98378 35612 ft 395 kts 318°
2026-05-06 16:40 36.52106 28.96164 35737 ft 395 kts 318°
2026-05-06 16:41 36.54200 28.93944 35895 ft 395 kts 318°
2026-05-06 16:41 36.56260 28.91758 36057 ft 394 kts 318°
2026-05-06 16:41 36.58355 28.89533 36061 ft 397 kts 318°
2026-05-06 16:42 36.62554 28.85069 36076 ft 396 kts 318°
2026-05-06 16:42 36.66723 28.80631 36073 ft 393 kts 318°
2026-05-06 16:43 36.70877 28.76210 36071 ft 391 kts 319°
2026-05-06 16:43 36.75023 28.71825 36080 ft 390 kts 319°
2026-05-06 16:44 36.79157 28.67449 36080 ft 389 kts 319°
2026-05-06 16:44 36.83255 28.63100 36067 ft 390 kts 319°
2026-05-06 16:45 36.87386 28.58708 36091 ft 390 kts 319°
2026-05-06 16:45 36.91531 28.54296 36083 ft 391 kts 319°
2026-05-06 16:46 36.95686 28.49865 36076 ft 394 kts 319°
2026-05-06 16:46 36.99860 28.45409 36076 ft 395 kts 319°
2026-05-06 16:47 37.04054 28.40922 36071 ft 397 kts 319°
2026-05-06 16:47 37.08263 28.36413 36066 ft 400 kts 319°
2026-05-06 16:48 37.12454 28.31840 36062 ft 399 kts 318°
2026-05-06 16:48 37.16635 28.27271 36065 ft 398 kts 319°
2026-05-06 16:49 37.20836 28.22767 36075 ft 397 kts 319°
2026-05-06 16:49 37.25028 28.18276 36067 ft 395 kts 319°
2026-05-06 16:50 37.29200 28.13789 36063 ft 394 kts 319°
2026-05-06 16:50 37.33326 28.09347 36057 ft 392 kts 319°
2026-05-06 16:51 37.37458 28.04898 36040 ft 390 kts 319°
2026-05-06 16:51 37.41577 28.00456 36047 ft 390 kts 319°
2026-05-06 16:52 37.45694 27.96008 36068 ft 390 kts 319°
2026-05-06 16:52 37.49824 27.91539 36069 ft 392 kts 319°
2026-05-06 16:53 37.53979 27.87035 36061 ft 395 kts 319°
2026-05-06 16:53 37.58167 27.82490 36045 ft 398 kts 319°
2026-05-06 16:54 37.62367 27.77923 36046 ft 399 kts 319°
2026-05-06 16:54 37.66584 27.73331 36044 ft 401 kts 319°
2026-05-06 16:55 37.70812 27.68721 36035 ft 402 kts 319°
2026-05-06 16:55 37.75012 27.64133 36045 ft 402 kts 319°
2026-05-06 16:56 37.79240 27.59508 36032 ft 401 kts 319°
2026-05-06 16:56 37.83439 27.54907 36060 ft 398 kts 319°
2026-05-06 16:57 37.87609 27.50331 36066 ft 395 kts 319°
2026-05-06 16:57 37.91746 27.45784 36043 ft 392 kts 319°
2026-05-06 16:58 37.95872 27.41242 36080 ft 396 kts 319°
2026-05-06 16:58 38.00062 27.36622 36053 ft 401 kts 319°
2026-05-06 16:59 38.04283 27.31961 36061 ft 404 kts 319°
2026-05-06 16:59 38.08504 27.27293 36062 ft 405 kts 319°
2026-05-06 17:00 38.12720 27.22623 36045 ft 398 kts 319°
2026-05-06 17:00 38.16861 27.18028 36047 ft 394 kts 319°
2026-05-06 17:01 38.20981 27.13449 36044 ft 393 kts 319°
2026-05-06 17:01 38.25096 27.08869 36051 ft 393 kts 319°
2026-05-06 17:02 38.29218 27.04273 36045 ft 394 kts 319°
2026-05-06 17:02 38.33349 26.99658 36058 ft 395 kts 319°
2026-05-06 17:03 38.37470 26.95054 36068 ft 398 kts 319°
2026-05-06 17:03 38.41651 26.90371 36058 ft 401 kts 319°
2026-05-06 17:04 38.45847 26.85663 36047 ft 402 kts 319°
2026-05-06 17:04 38.50055 26.80934 36062 ft 403 kts 319°
2026-05-06 17:05 38.54272 26.76188 36062 ft 404 kts 318°
2026-05-06 17:05 38.58490 26.71433 36062 ft 404 kts 318°
2026-05-06 17:06 38.62702 26.66677 36064 ft 404 kts 319°
2026-05-06 17:06 38.66912 26.61914 36061 ft 403 kts 319°
2026-05-06 17:07 38.71104 26.57166 36062 ft 402 kts 319°
2026-05-06 17:07 38.75254 26.52456 36059 ft 400 kts 318°
2026-05-06 17:08 38.79419 26.47721 36069 ft 400 kts 318°
2026-05-06 17:08 38.83573 26.42994 36069 ft 399 kts 319°
2026-05-06 17:09 38.87828 26.38420 36082 ft 399 kts 320°
2026-05-06 17:09 38.92137 26.33917 36073 ft 399 kts 320°
2026-05-06 17:10 38.96439 26.29387 36072 ft 400 kts 320°
2026-05-06 17:10 39.00013 26.25599 36064 ft 400 kts 320°
2026-05-06 17:11 39.04290 26.21051 36072 ft 401 kts 320°
2026-05-06 17:11 39.08598 26.16460 36071 ft 402 kts 320°
2026-05-06 17:12 39.12909 26.11859 36070 ft 403 kts 320°
2026-05-06 17:12 39.17232 26.07237 36075 ft 404 kts 320°
2026-05-06 17:13 39.21559 26.02604 36069 ft 404 kts 320°
2026-05-06 17:13 39.25891 25.97957 36066 ft 405 kts 320°
2026-05-06 17:14 39.30194 25.93325 36060 ft 405 kts 319°
2026-05-06 17:14 39.34468 25.88583 36075 ft 405 kts 319°
2026-05-06 17:15 39.38721 25.83816 36067 ft 405 kts 319°
2026-05-06 17:15 39.42978 25.79049 36072 ft 404 kts 319°
2026-05-06 17:16 39.47236 25.74281 36070 ft 404 kts 319°
2026-05-06 17:16 39.51489 25.69515 36068 ft 404 kts 319°
2026-05-06 17:17 39.55738 25.64745 36070 ft 404 kts 319°
2026-05-06 17:17 39.59985 25.59969 36063 ft 404 kts 319°
2026-05-06 17:18 39.64228 25.55189 36068 ft 404 kts 319°
2026-05-06 17:18 39.68442 25.50434 36063 ft 404 kts 319°
2026-05-06 17:19 39.72685 25.45638 36070 ft 404 kts 319°
2026-05-06 17:19 39.76929 25.40833 36063 ft 405 kts 319°
2026-05-06 17:20 39.81176 25.36016 36062 ft 405 kts 319°
2026-05-06 17:20 39.85420 25.31194 36038 ft 405 kts 319°
2026-05-06 17:21 39.89644 25.26388 36048 ft 406 kts 319°
2026-05-06 17:21 39.93527 25.21068 36046 ft 406 kts 306°
2026-05-06 17:22 39.96765 25.15034 36051 ft 407 kts 306°
2026-05-06 17:22 40.00011 25.08983 36052 ft 407 kts 306°
2026-05-06 17:23 40.03276 25.02926 36053 ft 408 kts 306°
2026-05-06 17:23 40.06550 24.96862 36047 ft 408 kts 306°
2026-05-06 17:24 40.09822 24.90794 36054 ft 409 kts 306°
2026-05-06 17:24 40.13094 24.84714 36052 ft 409 kts 306°
2026-05-06 17:25 40.16346 24.78660 36052 ft 409 kts 306°
2026-05-06 17:25 40.19614 24.72565 36049 ft 410 kts 306°
2026-05-06 17:26 40.22885 24.66450 36047 ft 410 kts 306°
2026-05-06 17:26 40.26149 24.60338 36049 ft 410 kts 306°
2026-05-06 17:27 40.29411 24.54218 36046 ft 409 kts 305°
2026-05-06 17:27 40.32667 24.48096 36045 ft 409 kts 305°
2026-05-06 17:28 40.35924 24.41962 36057 ft 409 kts 306°
2026-05-06 17:28 40.39151 24.35871 36028 ft 409 kts 305°
2026-05-06 17:29 40.42394 24.29738 36038 ft 408 kts 305°
2026-05-06 17:29 40.45628 24.23610 36039 ft 408 kts 305°
2026-05-06 17:30 40.48862 24.17469 36037 ft 408 kts 305°
2026-05-06 17:30 40.52091 24.11327 36034 ft 408 kts 305°
2026-05-06 17:31 40.55318 24.05175 36028 ft 408 kts 305°
2026-05-06 17:31 40.58521 23.99060 36039 ft 408 kts 305°
2026-05-06 17:32 40.61741 23.92893 36032 ft 409 kts 304°
2026-05-06 17:32 40.64958 23.86706 36035 ft 409 kts 304°
2026-05-06 17:33 40.68171 23.80514 36032 ft 410 kts 304°
2026-05-06 17:33 40.71387 23.74303 36026 ft 410 kts 304°
2026-05-06 17:34 40.74605 23.68077 36024 ft 411 kts 304°
2026-05-06 17:34 40.77824 23.61837 36016 ft 412 kts 304°
2026-05-06 17:35 40.81050 23.55570 36025 ft 413 kts 304°
2026-05-06 17:35 40.84275 23.49293 36020 ft 413 kts 304°
2026-05-06 17:36 40.89085 23.39907 36008 ft 413 kts 304°
2026-05-06 17:36 40.92324 23.33570 36018 ft 413 kts 304°
2026-05-06 17:37 40.95534 23.27279 36017 ft 413 kts 304°
2026-05-06 17:37 40.98725 23.21021 36023 ft 412 kts 304°
2026-05-06 17:38 41.01938 23.14737 36024 ft 412 kts 304°
2026-05-06 17:38 41.05145 23.08451 36029 ft 412 kts 303°
2026-05-06 17:39 41.08347 23.02162 36030 ft 411 kts 303°
2026-05-06 17:39 41.11722 22.96036 36035 ft 411 kts 309°
2026-05-06 17:40 41.15428 22.90323 36030 ft 411 kts 310°
2026-05-06 17:40 41.19154 22.84552 36022 ft 410 kts 309°
2026-05-06 17:41 41.22839 22.78748 36022 ft 411 kts 309°
2026-05-06 17:41 41.26546 22.72974 36029 ft 411 kts 310°
2026-05-06 17:42 41.30405 22.67356 36022 ft 411 kts 311°
2026-05-06 17:42 41.34255 22.61795 36026 ft 412 kts 311°
2026-05-06 17:43 41.38123 22.56158 36018 ft 412 kts 311°
2026-05-06 17:43 41.41978 22.50500 36016 ft 412 kts 310°
2026-05-06 17:44 41.45832 22.44826 36026 ft 412 kts 310°
2026-05-06 17:44 41.49658 22.39180 36014 ft 413 kts 310°
2026-05-06 17:45 41.53516 22.33477 36007 ft 413 kts 310°
2026-05-06 17:45 41.57367 22.27774 35995 ft 413 kts 310°
2026-05-06 17:46 41.61208 22.22075 35999 ft 413 kts 310°
2026-05-06 17:46 41.65045 22.16370 35995 ft 413 kts 310°
2026-05-06 17:47 41.68859 22.10689 35985 ft 413 kts 310°
2026-05-06 17:47 41.72692 22.04969 35980 ft 413 kts 310°
2026-05-06 17:48 41.76527 21.99234 35983 ft 413 kts 310°
2026-05-06 17:48 41.80359 21.93494 35973 ft 413 kts 310°
2026-05-06 17:49 41.84186 21.87749 35975 ft 413 kts 310°
2026-05-06 17:49 41.88004 21.82005 35967 ft 413 kts 310°
2026-05-06 17:50 41.91824 21.76249 35969 ft 413 kts 310°
2026-05-06 17:50 41.95643 21.70482 35969 ft 413 kts 309°
2026-05-06 17:51 41.99461 21.64706 35971 ft 413 kts 309°
2026-05-06 17:51 42.03258 21.58950 35971 ft 413 kts 309°
2026-05-06 17:52 42.07071 21.53158 35982 ft 413 kts 309°
2026-05-06 17:52 42.10881 21.47359 35980 ft 414 kts 309°
2026-05-06 17:53 42.14692 21.41548 35979 ft 413 kts 309°
2026-05-06 17:53 42.18461 21.35720 36000 ft 412 kts 308°
2026-05-06 17:54 42.22170 21.29825 36006 ft 412 kts 308°
2026-05-06 17:54 42.25878 21.23915 36011 ft 413 kts 308°
2026-05-06 17:55 42.29597 21.17993 36010 ft 413 kts 308°
2026-05-06 17:55 42.33311 21.12074 36018 ft 413 kts 308°
2026-05-06 17:56 42.37023 21.06150 36025 ft 412 kts 308°
2026-05-06 17:56 42.40699 21.00272 36018 ft 412 kts 308°
2026-05-06 17:57 42.44393 20.94352 36027 ft 411 kts 308°
2026-05-06 17:57 42.48088 20.88418 36025 ft 412 kts 308°
2026-05-06 17:58 42.51161 20.83474 36027 ft 412 kts 308°
2026-05-06 17:58 42.54859 20.77515 36030 ft 413 kts 308°
2026-05-06 17:59 42.58558 20.71541 36022 ft 413 kts 308°
2026-05-06 17:59 42.62252 20.65563 36026 ft 413 kts 308°
2026-05-06 18:00 42.65916 20.59621 36025 ft 413 kts 308°
2026-05-06 18:00 42.69607 20.53624 36018 ft 413 kts 308°
2026-05-06 18:01 42.73288 20.47631 36021 ft 413 kts 307°
2026-05-06 18:01 42.76967 20.41629 36024 ft 413 kts 307°
2026-05-06 18:02 42.80643 20.35619 36026 ft 413 kts 307°
2026-05-06 18:02 42.84297 20.29635 36028 ft 413 kts 307°
2026-05-06 18:03 42.87971 20.23607 36009 ft 413 kts 307°
2026-05-06 18:03 42.91645 20.17567 36018 ft 413 kts 307°
2026-05-06 18:04 42.95307 20.11533 36018 ft 412 kts 307°
2026-05-06 18:04 42.98966 20.05492 36024 ft 413 kts 307°
2026-05-06 18:05 43.02604 19.99471 36023 ft 414 kts 307°
2026-05-06 18:05 43.06270 19.93390 36030 ft 414 kts 307°
2026-05-06 18:06 43.09932 19.87295 36016 ft 415 kts 307°
2026-05-06 18:06 43.13598 19.81201 36030 ft 415 kts 307°
2026-05-06 18:07 43.17269 19.75078 36034 ft 417 kts 306°
2026-05-06 18:07 43.20956 19.68917 36019 ft 417 kts 306°
2026-05-06 18:08 43.24630 19.62763 36023 ft 417 kts 306°
2026-05-06 18:08 43.28293 19.56611 36018 ft 415 kts 306°
2026-05-06 18:09 43.31912 19.50523 36019 ft 413 kts 306°
2026-05-06 18:09 43.35534 19.44417 36026 ft 411 kts 306°
2026-05-06 18:10 43.39133 19.38331 36011 ft 409 kts 305°
2026-05-06 18:10 43.42707 19.32270 36007 ft 407 kts 305°
2026-05-06 18:11 43.46265 19.26225 35995 ft 405 kts 305°
2026-05-06 18:11 43.49770 19.20256 36021 ft 402 kts 305°
2026-05-06 18:12 43.53287 19.14257 35997 ft 402 kts 305°
2026-05-06 18:12 43.56885 19.08356 36012 ft 403 kts 306°
2026-05-06 18:13 43.60543 19.02479 36009 ft 404 kts 306°
2026-05-06 18:13 43.64204 18.96574 36008 ft 405 kts 306°
2026-05-06 18:14 43.67869 18.90628 36028 ft 407 kts 305°
2026-05-06 18:14 43.71545 18.84633 36013 ft 410 kts 305°
2026-05-06 18:15 43.75211 18.78650 35995 ft 411 kts 305°
2026-05-06 18:15 43.78908 18.72606 35998 ft 411 kts 305°
2026-05-06 18:16 43.82598 18.66556 36014 ft 411 kts 305°
2026-05-06 18:16 43.86276 18.60514 36023 ft 410 kts 305°
2026-05-06 18:17 43.89959 18.54449 36007 ft 410 kts 305°
2026-05-06 18:17 43.93602 18.48440 36020 ft 409 kts 305°
2026-05-06 18:18 43.97259 18.42392 36016 ft 409 kts 305°
2026-05-06 18:18 44.00917 18.36330 36013 ft 410 kts 305°
2026-05-06 18:19 44.04578 18.30253 36005 ft 410 kts 305°
2026-05-06 18:19 44.08236 18.24165 36000 ft 410 kts 305°
2026-05-06 18:20 44.11894 18.18065 35991 ft 410 kts 305°
2026-05-06 18:20 44.15549 18.11958 35981 ft 410 kts 305°
2026-05-06 18:21 44.19197 18.05850 35986 ft 410 kts 304°
2026-05-06 18:21 44.22842 17.99734 35970 ft 409 kts 304°
2026-05-06 18:22 44.26482 17.93613 35970 ft 409 kts 304°
2026-05-06 18:22 44.30084 17.87541 35966 ft 408 kts 304°
2026-05-06 18:23 44.33704 17.81428 35988 ft 408 kts 303°
2026-05-06 18:23 44.37326 17.75297 35982 ft 409 kts 304°
2026-05-06 18:24 44.40950 17.69150 35960 ft 409 kts 304°
2026-05-06 18:24 44.44571 17.62994 35969 ft 410 kts 304°
2026-05-06 18:25 44.48201 17.56809 35957 ft 411 kts 304°
2026-05-06 18:25 44.51826 17.50621 35961 ft 411 kts 303°
2026-05-06 18:26 44.55458 17.44409 35952 ft 411 kts 303°
2026-05-06 18:26 44.59055 17.38243 35950 ft 411 kts 303°
2026-05-06 18:27 44.62666 17.32037 35935 ft 410 kts 303°
2026-05-06 18:27 44.66273 17.25825 35925 ft 410 kts 304°
2026-05-06 18:28 44.69875 17.19608 35938 ft 410 kts 304°
2026-05-06 18:28 44.73473 17.13384 35923 ft 410 kts 303°
2026-05-06 18:29 44.77062 17.07163 35921 ft 410 kts 303°
2026-05-06 18:29 44.80631 17.00963 35925 ft 410 kts 303°
2026-05-06 18:30 44.84222 16.94711 35938 ft 410 kts 304°
2026-05-06 18:30 44.87811 16.88447 35934 ft 412 kts 304°
2026-05-06 18:31 44.91417 16.82141 35942 ft 414 kts 304°
2026-05-06 18:31 44.95043 16.75786 35937 ft 417 kts 304°
2026-05-06 18:32 44.98694 16.69371 35941 ft 420 kts 304°
2026-05-06 18:32 45.02363 16.62911 35945 ft 423 kts 304°
2026-05-06 18:33 45.06034 16.56434 35933 ft 425 kts 304°
2026-05-06 18:33 45.09737 16.49888 35931 ft 427 kts 304°
2026-05-06 18:34 45.13450 16.43312 35929 ft 427 kts 304°
2026-05-06 18:34 45.17248 16.36822 35929 ft 427 kts 306°
2026-05-06 18:35 45.21071 16.30383 35929 ft 426 kts 306°
2026-05-06 18:35 45.24874 16.23944 35921 ft 425 kts 305°
2026-05-06 18:36 45.28654 16.17505 35932 ft 424 kts 305°
2026-05-06 18:36 45.32423 16.11063 35927 ft 423 kts 305°
2026-05-06 18:37 45.35542 16.05717 35951 ft 423 kts 305°
2026-05-06 18:37 45.39930 15.98182 35928 ft 422 kts 304°
2026-05-06 18:38 45.43668 15.91747 35928 ft 421 kts 304°
2026-05-06 18:38 45.47376 15.85350 35915 ft 421 kts 305°
2026-05-06 18:39 45.51102 15.78907 35928 ft 421 kts 305°
2026-05-06 18:40 45.56684 15.69225 35929 ft 422 kts 304°
2026-05-06 18:40 45.60417 15.62731 35929 ft 423 kts 304°
2026-05-06 18:41 45.64148 15.56228 35928 ft 423 kts 304°
2026-05-06 18:41 45.67880 15.49706 35926 ft 424 kts 304°
2026-05-06 18:42 45.71619 15.43157 35921 ft 425 kts 304°
2026-05-06 18:42 45.75359 15.36592 35915 ft 425 kts 304°
2026-05-06 18:43 45.79094 15.30019 35910 ft 425 kts 304°
2026-05-06 18:43 45.82806 15.23472 35911 ft 426 kts 304°
2026-05-06 18:44 45.86541 15.16869 35925 ft 426 kts 304°
2026-05-06 18:44 45.90271 15.10257 35928 ft 426 kts 303°
2026-05-06 18:45 45.94004 15.03627 35924 ft 427 kts 303°
2026-05-06 18:45 45.97729 14.96993 35926 ft 426 kts 303°
2026-05-06 18:46 46.01449 14.90354 35930 ft 425 kts 303°
2026-05-06 18:46 46.05135 14.83759 35922 ft 425 kts 303°
2026-05-06 18:47 46.08841 14.77112 35919 ft 425 kts 303°
2026-05-06 18:47 46.11930 14.71519 35918 ft 426 kts 303°
2026-05-06 18:48 46.15581 14.64868 35917 ft 426 kts 302°
2026-05-06 18:48 46.19254 14.58162 35914 ft 426 kts 302°
2026-05-06 18:49 46.22933 14.51433 35909 ft 427 kts 302°
2026-05-06 18:49 46.26609 14.44695 35923 ft 428 kts 302°
2026-05-06 18:50 46.30293 14.37928 35919 ft 429 kts 302°
2026-05-06 18:50 46.33985 14.31128 35920 ft 430 kts 302°
2026-05-06 18:51 46.37685 14.24298 35918 ft 432 kts 302°
2026-05-06 18:51 46.41392 14.17437 35920 ft 433 kts 302°
2026-05-06 18:52 46.45110 14.10538 35893 ft 435 kts 302°
2026-05-06 18:52 46.48828 14.03625 35888 ft 434 kts 302°
2026-05-06 18:53 46.52529 13.96729 35883 ft 431 kts 303°
2026-05-06 18:53 46.56177 13.89912 35885 ft 430 kts 302°
2026-05-06 18:54 46.59844 13.83040 35908 ft 429 kts 302°
2026-05-06 18:54 46.63497 13.76178 35901 ft 428 kts 301°
2026-05-06 18:55 46.67131 13.69338 35872 ft 425 kts 302°
2026-05-06 18:55 46.70723 13.62558 35907 ft 423 kts 301°
2026-05-06 18:56 46.74320 13.55750 35912 ft 423 kts 301°
2026-05-06 18:56 46.77912 13.48933 35908 ft 425 kts 301°
2026-05-06 18:57 46.81518 13.42072 35943 ft 429 kts 301°
2026-05-06 18:57 46.85155 13.35132 35934 ft 435 kts 301°
2026-05-06 18:58 46.88846 13.28081 35928 ft 437 kts 301°
2026-05-06 18:58 46.92542 13.21005 35923 ft 438 kts 301°
2026-05-06 18:59 46.96237 13.13909 35919 ft 439 kts 301°
2026-05-06 18:59 46.99932 13.06797 35913 ft 438 kts 301°
2026-05-06 19:00 47.03618 12.99677 35914 ft 438 kts 300°
2026-05-06 19:00 47.07267 12.92617 35923 ft 435 kts 300°
2026-05-06 19:01 47.10911 12.85545 35911 ft 433 kts 300°
2026-05-06 19:01 47.14544 12.78474 35899 ft 433 kts 300°
2026-05-06 19:02 47.18169 12.71401 35876 ft 432 kts 300°
2026-05-06 19:02 47.21787 12.64324 35861 ft 432 kts 300°
2026-05-06 19:03 47.25400 12.57237 35885 ft 434 kts 300°
2026-05-06 19:03 47.29001 12.50157 35879 ft 435 kts 300°
2026-05-06 19:04 47.32635 12.42994 35857 ft 438 kts 300°
2026-05-06 19:04 47.36284 12.35783 35853 ft 438 kts 300°
2026-05-06 19:05 47.39931 12.28560 35834 ft 439 kts 300°
2026-05-06 19:05 47.43571 12.21328 35838 ft 439 kts 300°
2026-05-06 19:06 47.47213 12.14072 35842 ft 440 kts 300°
2026-05-06 19:06 47.50830 12.06851 35842 ft 439 kts 300°
2026-05-06 19:07 47.54464 11.99580 35844 ft 439 kts 300°
2026-05-06 19:07 47.58108 11.92338 35838 ft 438 kts 300°
2026-05-06 19:08 47.61753 11.85103 35847 ft 437 kts 300°
2026-05-06 19:08 47.65386 11.77866 35850 ft 437 kts 300°
2026-05-06 19:09 47.69003 11.70634 35853 ft 436 kts 300°
2026-05-06 19:09 47.72612 11.63395 35860 ft 436 kts 300°
2026-05-06 19:10 47.76213 11.56154 35860 ft 435 kts 300°
2026-05-06 19:10 47.79813 11.48894 35859 ft 436 kts 300°
2026-05-06 19:11 47.83390 11.41663 35887 ft 438 kts 300°
2026-05-06 19:11 47.86998 11.34349 35888 ft 439 kts 300°
2026-05-06 19:12 47.90618 11.26993 35885 ft 440 kts 300°
2026-05-06 19:12 47.94240 11.19612 35885 ft 442 kts 300°
2026-05-06 19:13 47.97870 11.12194 35886 ft 443 kts 300°
2026-05-06 19:13 48.01508 11.04741 35882 ft 445 kts 301°
2026-05-06 19:14 48.05152 10.97255 35891 ft 446 kts 300°
2026-05-06 19:14 48.08804 10.89732 35885 ft 447 kts 300°
2026-05-06 19:15 48.12437 10.82227 35883 ft 448 kts 300°
2026-05-06 19:15 48.16089 10.74662 35889 ft 448 kts 300°
2026-05-06 19:16 48.19741 10.67075 35886 ft 449 kts 301°
2026-05-06 19:16 48.23388 10.59478 35883 ft 449 kts 301°
2026-05-06 19:17 48.27031 10.51869 35881 ft 448 kts 301°
2026-05-06 19:17 48.30661 10.44267 35879 ft 447 kts 300°
2026-05-06 19:18 48.34275 10.36674 35878 ft 446 kts 300°
2026-05-06 19:18 48.37885 10.29069 35889 ft 446 kts 301°
2026-05-06 19:19 48.41460 10.21517 35873 ft 446 kts 301°
2026-05-06 19:19 48.45048 10.13914 35873 ft 445 kts 300°
2026-05-06 19:20 48.48629 10.06308 35863 ft 445 kts 300°
2026-05-06 19:20 48.52198 9.98703 35900 ft 445 kts 300°
2026-05-06 19:21 48.55776 9.91057 35874 ft 446 kts 301°
2026-05-06 19:21 48.59350 9.83399 35862 ft 447 kts 301°
2026-05-06 19:22 48.62934 9.75698 35867 ft 447 kts 301°
2026-05-06 19:22 48.66511 9.67992 35860 ft 448 kts 301°
2026-05-06 19:23 48.70177 9.60341 35889 ft 450 kts 303°
2026-05-06 19:23 48.73963 9.52833 35862 ft 452 kts 303°
2026-05-06 19:24 48.77779 9.45255 35864 ft 452 kts 303°
2026-05-06 19:24 48.81578 9.37630 35856 ft 453 kts 303°
2026-05-06 19:25 48.85365 9.29977 35857 ft 454 kts 303°
2026-05-06 19:25 48.89150 9.22301 35881 ft 453 kts 303°
2026-05-06 19:26 48.92926 9.14619 35856 ft 453 kts 303°
2026-05-06 19:26 48.96697 9.06926 35847 ft 453 kts 303°
2026-05-06 19:27 49.00457 8.99237 35844 ft 452 kts 303°
2026-05-06 19:27 49.04205 8.91549 35847 ft 451 kts 303°
2026-05-06 19:28 49.07946 8.83852 35856 ft 451 kts 303°
2026-05-06 19:28 49.11672 8.76165 35848 ft 450 kts 303°
2026-05-06 19:29 49.15372 8.68507 35842 ft 450 kts 303°
2026-05-06 19:29 49.19090 8.60793 35837 ft 450 kts 303°
2026-05-06 19:30 49.22798 8.53077 35839 ft 450 kts 303°
2026-05-06 19:30 49.26498 8.45353 35835 ft 450 kts 303°
2026-05-06 19:31 49.30192 8.37621 35840 ft 450 kts 303°
2026-05-06 19:31 49.35711 8.26028 35839 ft 450 kts 303°
2026-05-06 19:32 49.39398 8.18255 35842 ft 450 kts 303°
2026-05-06 19:32 49.43082 8.10464 35837 ft 451 kts 303°
2026-05-06 19:33 49.46769 8.02647 35851 ft 451 kts 303°
2026-05-06 19:33 49.50447 7.94822 35839 ft 452 kts 303°
2026-05-06 19:34 49.53505 7.88301 35843 ft 451 kts 303°
2026-05-06 19:34 49.57175 7.80454 35837 ft 451 kts 303°
2026-05-06 19:35 49.60835 7.72605 35836 ft 451 kts 303°
2026-05-06 19:35 49.64489 7.64745 35856 ft 450 kts 303°
2026-05-06 19:36 49.68131 7.56887 35841 ft 450 kts 303°
2026-05-06 19:36 49.71763 7.49028 35845 ft 449 kts 303°
2026-05-06 19:37 49.75379 7.41180 35859 ft 448 kts 303°
2026-05-06 19:37 49.78986 7.33329 35854 ft 447 kts 303°
2026-05-06 19:38 49.82584 7.25474 35873 ft 447 kts 303°
2026-05-06 19:38 49.86174 7.17611 35864 ft 446 kts 303°
2026-05-06 19:39 49.89730 7.09802 35852 ft 446 kts 303°
2026-05-06 19:39 49.93300 7.01939 35859 ft 445 kts 303°
2026-05-06 19:40 49.96622 6.93866 35853 ft 443 kts 297°
2026-05-06 19:40 49.99566 6.85475 35860 ft 442 kts 296°
2026-05-06 19:41 50.02486 6.77046 35857 ft 443 kts 296°
2026-05-06 19:41 50.05446 6.68637 35856 ft 443 kts 297°
2026-05-06 19:42 50.08424 6.60244 35858 ft 443 kts 297°
2026-05-06 19:42 50.11404 6.51845 35859 ft 443 kts 297°
2026-05-06 19:43 50.14380 6.43429 35858 ft 443 kts 296°
2026-05-06 19:43 50.17348 6.35007 35868 ft 443 kts 297°
2026-05-06 19:44 50.20312 6.26566 35869 ft 443 kts 297°
2026-05-06 19:44 50.23267 6.18119 35882 ft 443 kts 297°
2026-05-06 19:45 50.26191 6.09735 35882 ft 443 kts 297°
2026-05-06 19:45 50.29129 6.01284 35895 ft 442 kts 297°
2026-05-06 19:46 50.32057 5.92834 35904 ft 442 kts 297°
2026-05-06 19:46 50.34978 5.84375 35903 ft 441 kts 297°
2026-05-06 19:47 50.37888 5.75918 35908 ft 440 kts 297°
2026-05-06 19:47 50.40789 5.67461 35914 ft 440 kts 297°
2026-05-06 19:48 50.43663 5.59057 35911 ft 440 kts 297°
2026-05-06 19:48 50.46544 5.50600 35927 ft 439 kts 297°
2026-05-06 19:49 50.49419 5.42134 35916 ft 439 kts 296°
2026-05-06 19:49 50.52288 5.33659 35925 ft 439 kts 296°
2026-05-06 19:50 50.55144 5.25193 35921 ft 438 kts 296°
2026-05-06 19:50 50.57996 5.16709 35926 ft 438 kts 296°
2026-05-06 19:51 50.60838 5.08227 35938 ft 438 kts 296°
2026-05-06 19:51 50.63674 4.99734 35933 ft 438 kts 296°
2026-05-06 19:52 50.66498 4.91248 35934 ft 437 kts 296°
2026-05-06 19:52 50.69292 4.82826 35939 ft 437 kts 296°
2026-05-06 19:53 50.72103 4.74323 35939 ft 437 kts 296°
2026-05-06 19:53 50.74887 4.65871 35946 ft 436 kts 296°
2026-05-06 19:54 50.77680 4.57365 35940 ft 436 kts 296°
2026-05-06 19:54 50.80469 4.48841 35945 ft 436 kts 296°
2026-05-06 19:55 50.83247 4.40323 35938 ft 436 kts 296°
2026-05-06 19:55 50.86019 4.31793 35938 ft 436 kts 296°
2026-05-06 19:56 50.88786 4.23249 35944 ft 435 kts 296°
2026-05-06 19:56 50.91544 4.14702 35942 ft 435 kts 296°
2026-05-06 19:57 50.94293 4.06156 35944 ft 435 kts 296°
2026-05-06 19:57 50.97033 3.97607 35947 ft 435 kts 296°
2026-05-06 19:58 50.99750 3.89102 35943 ft 435 kts 296°
2026-05-06 19:58 51.02477 3.80534 35942 ft 435 kts 296°
2026-05-06 19:59 51.05200 3.71953 35947 ft 435 kts 296°
2026-05-06 19:59 51.07915 3.63362 35951 ft 435 kts 296°
2026-05-06 20:00 51.10622 3.54770 35953 ft 434 kts 296°
2026-05-06 20:00 51.13324 3.46162 35956 ft 434 kts 295°
2026-05-06 20:01 51.16019 3.37545 35958 ft 434 kts 295°
2026-05-06 20:01 51.18709 3.28916 35964 ft 434 kts 296°
2026-05-06 20:02 51.21389 3.20286 35968 ft 434 kts 295°
2026-05-06 20:02 51.24048 3.11696 35965 ft 434 kts 295°
2026-05-06 20:03 51.26717 3.03044 35968 ft 434 kts 295°
2026-05-06 20:03 51.29377 2.94387 35966 ft 434 kts 295°
2026-05-06 20:04 51.32030 2.85727 35975 ft 433 kts 295°
2026-05-06 20:04 51.34658 2.77075 35971 ft 432 kts 292°
2026-05-06 20:05 51.36279 2.67898 35983 ft 428 kts 280°
2026-05-06 20:05 51.37354 2.58529 35979 ft 427 kts 280°
2026-05-06 20:06 51.38453 2.49186 35986 ft 426 kts 280°
2026-05-06 20:06 51.39567 2.39936 35997 ft 425 kts 281°
2026-05-06 20:07 51.40685 2.30631 35990 ft 425 kts 280°
2026-05-06 20:07 51.41803 2.21329 35990 ft 425 kts 281°
2026-05-06 20:08 51.42945 2.12023 35994 ft 426 kts 281°
2026-05-06 20:08 51.44152 2.02711 35984 ft 427 kts 287°
2026-05-06 20:09 51.46659 1.94086 35999 ft 429 kts 301°
2026-05-06 20:09 51.49931 1.86058 35991 ft 430 kts 302°
2026-05-06 20:10 51.53202 1.78080 36002 ft 431 kts 302°
2026-05-06 20:10 51.56476 1.69986 36013 ft 432 kts 301°
2026-05-06 20:11 51.59731 1.61856 36000 ft 432 kts 301°
2026-05-06 20:11 51.62973 1.53715 36002 ft 432 kts 301°
2026-05-06 20:12 51.66210 1.45561 36002 ft 432 kts 301°
2026-05-06 20:12 51.69435 1.37412 36003 ft 431 kts 301°
2026-05-06 20:13 51.72649 1.29265 36001 ft 430 kts 301°
2026-05-06 20:13 51.75853 1.21118 36001 ft 429 kts 301°
2026-05-06 20:14 51.79023 1.13035 36001 ft 429 kts 301°
2026-05-06 20:14 51.82209 1.04882 36012 ft 428 kts 301°
2026-05-06 20:15 51.85384 0.96733 36002 ft 428 kts 301°
2026-05-06 20:15 51.88547 0.88587 36002 ft 427 kts 301°
2026-05-06 20:16 51.91701 0.80439 36006 ft 427 kts 301°
2026-05-06 20:16 51.94852 0.72275 36007 ft 427 kts 301°
2026-05-06 20:17 51.97995 0.64104 36009 ft 427 kts 300°
2026-05-06 20:17 52.01137 0.55908 36017 ft 427 kts 300°
2026-05-06 20:18 52.04271 0.47706 36013 ft 428 kts 300°
2026-05-06 20:18 52.07401 0.39490 36012 ft 428 kts 300°
2026-05-06 20:19 52.10510 0.31305 36019 ft 428 kts 300°
2026-05-06 20:19 52.13632 0.23055 35935 ft 429 kts 300°
2026-05-06 20:20 52.15198 0.18908 35606 ft 428 kts 300°
2026-05-06 20:20 52.16749 0.14795 35200 ft 423 kts 300°
2026-05-06 20:20 52.18278 0.10732 34825 ft 419 kts 300°
2026-05-06 20:20 52.19793 0.06703 34431 ft 415 kts 300°
2026-05-06 20:21 52.21290 0.02712 34047 ft 411 kts 300°
2026-05-06 20:21 52.22775 -0.01251 33590 ft 407 kts 300°
2026-05-06 20:21 52.24243 -0.05177 33176 ft 403 kts 300°
2026-05-06 20:21 52.25691 -0.09056 32772 ft 398 kts 300°
2026-05-06 20:22 52.26644 -0.11611 32533 ft 395 kts 300°
2026-05-06 20:22 52.28065 -0.15425 32137 ft 391 kts 300°
2026-05-06 20:22 52.29470 -0.19203 31780 ft 387 kts 300°
2026-05-06 20:22 52.30864 -0.22957 31400 ft 384 kts 300°
2026-05-06 20:23 52.32242 -0.26673 31029 ft 381 kts 300°
2026-05-06 20:23 52.33606 -0.30357 30661 ft 377 kts 300°
2026-05-06 20:23 52.34957 -0.34013 30302 ft 374 kts 300°
2026-05-06 20:23 52.36300 -0.37648 29916 ft 371 kts 300°
2026-05-06 20:24 52.37611 -0.41205 29529 ft 367 kts 300°
2026-05-06 20:24 52.38922 -0.44767 29152 ft 363 kts 300°
2026-05-06 20:24 52.40216 -0.48287 28787 ft 359 kts 300°
2026-05-06 20:24 52.41495 -0.51772 28420 ft 355 kts 300°
2026-05-06 20:25 52.42761 -0.55223 28049 ft 352 kts 300°
2026-05-06 20:25 52.44013 -0.58643 27698 ft 348 kts 300°
2026-05-06 20:25 52.45253 -0.62035 27333 ft 345 kts 300°
2026-05-06 20:25 52.46482 -0.65401 26975 ft 342 kts 300°
2026-05-06 20:26 52.47700 -0.68743 26622 ft 340 kts 300°
2026-05-06 20:26 52.48905 -0.72052 26270 ft 337 kts 300°
2026-05-06 20:26 52.50102 -0.75342 25925 ft 335 kts 300°
2026-05-06 20:26 52.51293 -0.78623 25582 ft 332 kts 300°
2026-05-06 20:27 52.52458 -0.81835 25257 ft 330 kts 300°
2026-05-06 20:27 52.53629 -0.85066 24915 ft 328 kts 300°
2026-05-06 20:27 52.54794 -0.88287 24581 ft 327 kts 300°
2026-05-06 20:27 52.55953 -0.91493 24240 ft 325 kts 300°
2026-05-06 20:28 52.57107 -0.94690 23895 ft 324 kts 300°
2026-05-06 20:28 52.58251 -0.97866 23553 ft 322 kts 300°
2026-05-06 20:28 52.59392 -1.01036 23154 ft 321 kts 300°
2026-05-06 20:28 52.60527 -1.04191 22796 ft 319 kts 300°
2026-05-06 20:29 52.61653 -1.07326 22463 ft 316 kts 300°
2026-05-06 20:29 52.62766 -1.10432 22127 ft 314 kts 300°
2026-05-06 20:29 52.63877 -1.13532 21796 ft 315 kts 300°
2026-05-06 20:29 52.64990 -1.16644 21461 ft 316 kts 300°
2026-05-06 20:30 52.66120 -1.19805 21138 ft 324 kts 300°
2026-05-06 20:30 52.68429 -1.26279 20426 ft 327 kts 300°
2026-05-06 20:30 52.69583 -1.29434 20080 ft 325 kts 305°
2026-05-06 20:31 52.71191 -1.32017 19706 ft 325 kts 324°
2026-05-06 20:31 52.73095 -1.34016 19351 ft 324 kts 327°
2026-05-06 20:31 52.75024 -1.35946 19026 ft 324 kts 327°
2026-05-06 20:31 52.76951 -1.37863 18650 ft 324 kts 327°
2026-05-06 20:32 52.78882 -1.39795 18257 ft 323 kts 327°
2026-05-06 20:32 52.80797 -1.41725 17830 ft 323 kts 327°
2026-05-06 20:32 52.82707 -1.43662 17426 ft 321 kts 327°
2026-05-06 20:32 52.84603 -1.45595 17041 ft 319 kts 327°
2026-05-06 20:33 52.86493 -1.47526 16662 ft 318 kts 327°
2026-05-06 20:33 52.88367 -1.49445 16286 ft 316 kts 327°
2026-05-06 20:33 52.90230 -1.51356 15922 ft 314 kts 327°
2026-05-06 20:33 52.92085 -1.53261 15556 ft 313 kts 327°
2026-05-06 20:34 52.93930 -1.55159 15194 ft 311 kts 327°
2026-05-06 20:34 52.95764 -1.57047 14832 ft 310 kts 327°
2026-05-06 20:34 52.97588 -1.58928 14480 ft 308 kts 327°
2026-05-06 20:34 52.99407 -1.60804 14116 ft 307 kts 327°
2026-05-06 20:35 53.01222 -1.62678 13748 ft 306 kts 327°
2026-05-06 20:35 53.03030 -1.64546 13349 ft 305 kts 327°
2026-05-06 20:35 53.04833 -1.66415 12972 ft 304 kts 326°
2026-05-06 20:35 53.06404 -1.68699 12618 ft 300 kts 309°
2026-05-06 20:36 53.07721 -1.71368 12271 ft 298 kts 309°
2026-05-06 20:36 53.09045 -1.74005 11918 ft 296 kts 309°
2026-05-06 20:36 53.10375 -1.76613 11565 ft 295 kts 310°
2026-05-06 20:36 53.11703 -1.79200 11232 ft 293 kts 310°
2026-05-06 20:37 53.13029 -1.81777 10883 ft 292 kts 310°
2026-05-06 20:37 53.14347 -1.84341 10538 ft 291 kts 310°
2026-05-06 20:37 53.15644 -1.86866 10193 ft 288 kts 310°
2026-05-06 20:37 53.16924 -1.89358 9977 ft 275 kts 310°
2026-05-06 20:38 53.18164 -1.91775 9540 ft 277 kts 310°
2026-05-06 20:38 53.19402 -1.94191 9196 ft 271 kts 310°
2026-05-06 20:38 53.20624 -1.96578 8859 ft 270 kts 310°
2026-05-06 20:38 53.21841 -1.98957 8533 ft 267 kts 310°
2026-05-06 20:39 53.23032 -2.01292 8210 ft 260 kts 310°
2026-05-06 20:39 53.23913 -2.03850 7920 ft 253 kts 285°
2026-05-06 20:39 53.23931 -2.06715 7661 ft 247 kts 257°
2026-05-06 20:39 53.23387 -2.09427 7437 ft 243 kts 251°
2026-05-06 20:40 53.22779 -2.12021 7191 ft 236 kts 250°
2026-05-06 20:40 53.22171 -2.14551 6933 ft 234 kts 250°
2026-05-06 20:40 53.21559 -2.17071 6686 ft 233 kts 250°
2026-05-06 20:40 53.20947 -2.19572 6442 ft 233 kts 250°
2026-05-06 20:41 53.20335 -2.22065 6177 ft 232 kts 250°
2026-05-06 20:41 53.19827 -2.24595 5893 ft 228 kts 264°
2026-05-06 20:41 53.19772 -2.27197 5625 ft 222 kts 270°
2026-05-06 20:41 53.19752 -2.29723 5374 ft 219 kts 270°
2026-05-06 20:42 53.19728 -2.32233 5107 ft 215 kts 270°
2026-05-06 20:42 53.19711 -2.34722 4854 ft 214 kts 270°
2026-05-06 20:42 53.19702 -2.37173 4624 ft 209 kts 270°
2026-05-06 20:42 53.19699 -2.39575 4424 ft 205 kts 270°
2026-05-06 20:43 53.19807 -2.41954 4196 ft 208 kts 287°
2026-05-06 20:43 53.20554 -2.44018 4004 ft 210 kts 308°
2026-05-06 20:43 53.21493 -2.45896 3788 ft 212 kts 309°
2026-05-06 20:43 53.22440 -2.47754 3565 ft 206 kts 310°
2026-05-06 20:44 53.23384 -2.49462 3336 ft 196 kts 323°
2026-05-06 20:44 53.24669 -2.50117 3045 ft 196 kts 10°
2026-05-06 20:44 53.25750 -2.49071 2837 ft 173 kts 62°
2026-05-06 20:44 53.26113 -2.47263 2628 ft 161 kts 77°
2026-05-06 20:45 53.26529 -2.45535 2424 ft 161 kts 65°
2026-05-06 20:45 53.27109 -2.43961 2217 ft 155 kts 62°
2026-05-06 20:45 53.27695 -2.42490 1991 ft 152 kts 59°
2026-05-06 20:45 53.28343 -2.41068 1799 ft 156 kts 56°
2026-05-06 20:46 53.29028 -2.39645 1583 ft 157 kts 56°
2026-05-06 20:46 53.29702 -2.38254 1351 ft 155 kts 55°
2026-05-06 20:46 53.30372 -2.36874 1123 ft 149 kts 55°
2026-05-06 20:46 53.31012 -2.35552 938 ft 150 kts 54°
2026-05-06 20:47 53.31665 -2.34210 692 ft 146 kts 54°
2026-05-06 20:47 53.32289 -2.32920 510 ft 143 kts 54°
2026-05-06 20:47 53.32919 -2.31637 331 ft 144 kts 51°
2026-05-06 20:47 53.33550 -2.30346 237 ft 141 kts 52°
2026-05-06 20:48 53.34091 -2.29214 229 ft 94 kts 51°
2026-05-06 20:48 53.34341 -2.28704 223 ft 35 kts 50°
2026-05-06 20:48 53.34535 -2.28514 227 ft 25 kts 22°
2026-05-06 20:48 53.34628 -2.28456 229 ft 5 kts 20°
2026-05-06 20:49 53.34633 -2.28453 229 ft 0 kts 20°
2026-05-06 20:49 53.34634 -2.28452 229 ft 1 kts 20°
2026-05-06 20:49 53.34666 -2.28432 229 ft 9 kts 20°
2026-05-06 20:49 53.34739 -2.28342 229 ft 17 kts 51°
2026-05-06 20:50 53.34826 -2.28158 230 ft 23 kts 52°
2026-05-06 20:50 53.34933 -2.27942 229 ft 24 kts 50°
2026-05-06 20:50 53.35034 -2.27734 229 ft 23 kts 51°
2026-05-06 20:50 53.35131 -2.27531 233 ft 22 kts 52°
2026-05-06 20:51 53.35225 -2.27334 237 ft 21 kts 51°
2026-05-06 20:51 53.35296 -2.27207 240 ft 7 kts 32°
2026-05-06 20:51 53.35325 -2.27191 242 ft 3 kts 13°
2026-05-06 20:51 53.35344 -2.27188 243 ft 3 kts
2026-05-06 20:52 53.35385 -2.27208 245 ft 10 kts 329°
2026-05-06 20:52 53.35457 -2.27304 247 ft 17 kts 321°
2026-05-06 20:52 53.35564 -2.27444 245 ft 22 kts 322°
2026-05-06 20:52 53.35652 -2.27563 245 ft 12 kts 316°
2026-05-06 20:53 53.35724 -2.27636 247 ft 12 kts 340°
2026-05-06 20:53 53.35796 -2.27702 250 ft 12 kts 318°
2026-05-06 20:53 53.35874 -2.27727 254 ft 11 kts
2026-05-06 20:53 53.35952 -2.27728 254 ft 11 kts 351°
2026-05-06 20:54 53.36017 -2.27792 254 ft 11 kts 321°
2026-05-06 20:54 53.36076 -2.27869 254 ft 11 kts 322°
2026-05-06 20:54 53.36133 -2.27943 254 ft 10 kts 322°
2026-05-06 20:54 53.36187 -2.28019 254 ft 10 kts 312°
2026-05-06 20:55 53.36244 -2.28074 254 ft 10 kts
2026-05-06 20:55 53.36309 -2.28051 254 ft 9 kts 19°
2026-05-06 20:55 53.36360 -2.27986 254 ft 9 kts 45°
2026-05-06 20:55 53.36394 -2.27900 254 ft 9 kts 88°
2026-05-06 20:56 53.36360 -2.27816 254 ft 9 kts 132°
2026-05-06 20:56 53.36337 -2.27727 254 ft 7 kts 108°
2026-05-06 20:56 53.36338 -2.27666 254 ft 6 kts 44°
2026-05-06 20:56 53.36365 -2.27647 254 ft 3 kts 14°
2026-05-06 20:57 53.36381 -2.27639 254 ft 1 kts 15°
2026-05-06 20:57 53.36387 -2.27637 254 ft 0 kts 15°